Location: DAV
(33.5613°N, 82.7640°W)
Time: 22:19:25
(UTC-04:00)

Tiangong 2 - Visible Passes

Search period start: 20 July 2018 00:00
Search period end: 30 July 2018 00:00
Orbit: 386 x 394 km, 42.8° (Epoch: 20 July)

Date Brightness Start Highest point End Pass type
(mag) Time Alt. Az. Time Alt. Az. Time Alt. Az.
20 Jul 3.6 21:38:13 10° NW 21:40:26 17° N 21:42:39 10° NE visible
20 Jul 3.7 23:14:40 10° NW 23:16:01 22° NW 23:16:01 22° NW visible
21 Jul 2.5 22:17:06 10° NW 22:19:59 31° NNE 22:20:44 27° NE visible
22 Jul 3.1 21:19:32 10° NW 21:22:07 22° NNE 21:24:42 10° ENE visible
22 Jul 3.0 22:56:03 10° WNW 22:57:47 29° WNW 22:57:47 29° WNW visible
23 Jul 1.5 21:58:22 10° NW 22:01:31 55° NNE 22:02:33 35° E visible
24 Jul 2.4 21:00:46 10° NW 21:03:42 33° NNE 21:06:38 10° E visible
24 Jul 2.8 22:37:38 10° WNW 22:39:40 28° WSW 22:39:40 28° WSW visible
25 Jul 1.1 21:39:44 10° WNW 21:42:54 69° SSW 21:44:31 26° SE visible
26 Jul 3.4 22:19:45 10° W 22:21:45 16° SW 22:21:45 16° SW visible
27 Jul 2.5 21:21:19 10° W 21:24:10 30° SW 21:26:44 12° SSE visible
29 Jul 3.7 21:03:33 10° WSW 21:05:19 14° SW 21:07:05 10° S visible
